Regional Weather Roundup
Issued by NWS

Home | Current Version | Previous Version | Graphics & Text | Print | Product List | Glossary On
Versions: 1 2 3 4 5 6 7 8 9 10 11 12 13 14 15 16 17 18 19 20 21 22 23 24 25 26 27 28
000
ASUS45 KSLC 151110
RWRUT

UTAH REGIONAL WEATHER ROUNDUP
NATIONAL WEATHER SERVICE SALT LAKE CITY UT
500 AM MDT TUE APR 15 2014

UTZ001>011-023>025-151200-

NORTHERN UTAH

CITY           SKY/WX    TMP DP  RH WIND       PRES   REMARKS
HILL AFB       PTCLDY    38   7  27 E13       30.07F WCI  30
LOGAN          CLEAR     32  20  61 CALM      30.07F
OGDEN          PTCLDY    38   9  30 S9        30.07F WCI  31
PROVO AIRPORT  PTCLDY    34  21  60 CALM      30.11F
SALT LAKE CITY MOCLDY    40  17  39 SE8       30.07F WCI  34
VERNAL         PTCLDY    28  20  71 NW3       30.16F
WENDOVER       PTCLDY    41   9  26 N3        30.05F
HEBER CITY     PTCLDY    23  18  80 CALM      30.14F
WEST JORDAN    CLEAR     43  25  49 S15G23    30.08F

$$

UTZ012>022-026-027-151200-

SOUTHERN UTAH

CITY           SKY/WX    TMP DP  RH WIND       PRES   REMARKS
BRYCE CANYON   CLEAR     20  11  68 W8        30.21F WCI  10
CEDAR CITY     CLEAR     27   4  37 W3        30.12F
MILFORD        CLEAR     29   6  38 S10       30.11F WCI  20
MOAB/CYNLANDS  CLEAR     34  20  56 CALM      30.18S
PRICE          PTCLDY    29  12  49 NE6       30.16F WCI  23
ST GEORGE      MOSUNNY   48   9  20 SE8       30.11F
KANAB            N/A     34  10  37 NW14      30.19  WCI  24

$$

REGIONAL REPORTS     COLORADO/ARIZONA

CITY           SKY/WX    TMP DP  RH WIND       PRES   REMARKS
CRAIG, CO      PTCLDY    21  16  81 CALM      30.17F
GRAND JUNCTION CLEAR     31  21  66 E12       30.21F WCI  22
RIFLE          PTCLDY    25  21  85 CALM      30.24F
MONTROSE       CLEAR     28  18  66 SE8       30.24F WCI  20
CORTEZ         CLEAR     20  13  74 NE7       30.20F WCI  11
PAGE, AZ       CLEAR     43   1  17 S3        30.16S
GRAND CANYON   PTCLDY    18   0  45 CALM      30.20F
KINGMAN        CLEAR     41   2  19 SE6       30.06F
FLAGSTAFF      CLEAR     19   4  51 CALM      30.20F

$$

REGIONAL REPORTS    NEVADA/IDAHO/WYOMING

CITY           SKY/WX    TMP DP  RH WIND       PRES   REMARKS
LAS VEGAS, NV  CLOUDY    56  12  17 S10       29.98F
ELY            MOCLDY    32  10  40 SE6       30.13F WCI  26
ELKO           MOCLDY    30  16  56 CALM      30.06F
POCATELLO, ID  CLEAR     49  11  21 S18       29.98F
BURLEY         MOCLDY    47  12  24 S15       29.97F
EVANSTON, WY   MOCLDY    31  10  41 SW13      30.09F WCI  21
ROCK SPRINGS   PTCLDY    33   1  25 SW17      30.06F WCI  22

$$



USA.gov is the U.S. government's official web portal to all federal, state and local government web resources and services.